TimeCEST,TemperatureF,Dew PointF,Humidity,Sea Level PressureIn,VisibilityMPH,Wind Direction,Wind SpeedMPH,Gust SpeedMPH,PrecipitationIn,Events,Conditions,WindDirDegrees,DateUTC
12:45 AM,50.0,42.8,76,30.15,-9999.0,South,5.8,-,N/A,,Clear,170,2012-10-05 22:45:00
1:45 AM,48.2,44.6,87,30.15,-9999.0,ENE,2.3,-,N/A,,Clear,60,2012-10-05 23:45:00
2:00 AM,47,44,86,30.16,16,ENE,2.2,,,,Partly Cloudy,60,2012-10-06 00:00:00
2:45 AM,48.2,41.0,76,30.15,-9999.0,ESE,2.3,-,N/A,,Clear,120,2012-10-06 00:45:00
3:45 AM,44.6,41.0,87,30.15,-9999.0,East,2.3,-,N/A,,Clear,100,2012-10-06 01:45:00
4:45 AM,44.6,41.0,87,30.15,-9999.0,East,2.3,-,N/A,,Clear,100,2012-10-06 02:45:00
5:45 AM,46.4,41.0,81,30.15,-9999.0,ESE,2.3,-,N/A,,Clear,110,2012-10-06 03:45:00
6:15 AM,46.4,39.2,76,30.15,-9999.0,SE,3.5,-,N/A,,Clear,130,2012-10-06 04:15:00
6:45 AM,44.6,39.2,81,30.15,3.7,ESE,2.3,-,N/A,,Partly Cloudy,110,2012-10-06 04:45:00
7:15 AM,44.6,39.2,81,30.15,3.7,SE,4.6,-,N/A,,Partly Cloudy,130,2012-10-06 05:15:00
7:45 AM,48.2,42.8,82,30.15,4.3,SE,5.8,-,N/A,,Scattered Clouds,140,2012-10-06 05:45:00
8:00 AM,48,42,74,30.16,4,SE,6.7,,,,Partly Cloudy,140,2012-10-06 06:00:00
8:15 AM,51.8,44.6,76,30.15,-9999.0,SE,5.8,-,N/A,,Clear,130,2012-10-06 06:15:00
8:45 AM,55.4,44.6,67,30.15,-9999.0,SE,4.6,-,N/A,,Clear,140,2012-10-06 06:45:00
9:15 AM,57.2,44.6,63,30.15,-9999.0,SSE,4.6,-,N/A,,Clear,160,2012-10-06 07:15:00
9:45 AM,60.8,46.4,59,30.15,-9999.0,SSE,4.6,-,N/A,,Clear,160,2012-10-06 07:45:00
10:15 AM,62.6,44.6,52,30.15,-9999.0,SSE,4.6,-,N/A,,Clear,160,2012-10-06 08:15:00
10:45 AM,66.2,46.4,49,30.15,-9999.0,SSE,5.8,-,N/A,,Clear,160,2012-10-06 08:45:00
11:15 AM,68.0,44.6,43,30.15,-9999.0,SSE,5.8,-,N/A,,Clear,160,2012-10-06 09:15:00
11:45 AM,71.6,44.6,38,30.12,-9999.0,SSE,5.8,-,N/A,,Clear,160,2012-10-06 09:45:00
12:15 PM,73.4,44.6,36,30.12,-9999.0,SSE,4.6,-,N/A,,Clear,160,2012-10-06 10:15:00
12:45 PM,73.4,44.6,36,30.12,-9999.0,South,5.8,-,N/A,,Clear,190,2012-10-06 10:45:00
1:15 PM,75.2,48.2,38,30.09,-9999.0,South,4.6,-,N/A,,Clear,180,2012-10-06 11:15:00
1:45 PM,77.0,50.0,39,30.09,-9999.0,South,5.8,-,N/A,,Clear,170,2012-10-06 11:45:00
2:00 PM,76,50,29,30.09,16,South,6.7,,,,Partly Cloudy,170,2012-10-06 12:00:00
2:15 PM,77.0,50.0,39,30.09,-9999.0,South,5.8,-,N/A,,Clear,190,2012-10-06 12:15:00
2:45 PM,77.0,50.0,39,30.06,-9999.0,South,5.8,-,N/A,,Clear,180,2012-10-06 12:45:00
3:15 PM,78.8,48.2,34,30.06,-9999.0,South,5.8,-,N/A,,Clear,180,2012-10-06 13:15:00
3:45 PM,78.8,50.0,36,30.06,-9999.0,South,2.3,-,N/A,,Clear,180,2012-10-06 13:45:00
4:15 PM,78.8,48.2,34,30.04,-9999.0,SSW,8.1,-,N/A,,Clear,200,2012-10-06 14:15:00
4:45 PM,77.0,50.0,39,30.04,-9999.0,South,5.8,-,N/A,,Clear,180,2012-10-06 14:45:00
5:15 PM,75.2,51.8,44,30.04,-9999.0,South,3.5,-,N/A,,Clear,180,2012-10-06 15:15:00
5:45 PM,73.4,51.8,47,30.04,-9999.0,WSW,3.5,-,N/A,,Clear,250,2012-10-06 15:45:00
6:15 PM,69.8,51.8,53,30.04,-9999.0,West,2.3,-,N/A,,Clear,270,2012-10-06 16:15:00
6:45 PM,66.2,51.8,60,30.04,-9999.0,Calm,Calm,-,N/A,,Clear,0,2012-10-06 16:45:00
7:15 PM,62.6,53.6,72,30.04,-9999.0,Calm,Calm,-,N/A,,Clear,0,2012-10-06 17:15:00
7:45 PM,62.6,53.6,72,30.04,-9999.0,South,3.5,-,N/A,,Clear,170,2012-10-06 17:45:00
8:00 PM,62,53,63,30.03,9,South,4.5,,,,Partly Cloudy,170,2012-10-06 18:00:00
8:15 PM,60.8,53.6,77,30.04,-9999.0,South,2.3,-,N/A,,Clear,180,2012-10-06 18:15:00
8:45 PM,59.0,53.6,82,30.04,-9999.0,SSE,3.5,-,N/A,,Clear,160,2012-10-06 18:45:00
9:15 PM,59.0,51.8,77,30.04,-9999.0,South,3.5,-,N/A,,Clear,180,2012-10-06 19:15:00
9:45 PM,59.0,51.8,77,30.04,-9999.0,South,3.5,-,N/A,,Clear,180,2012-10-06 19:45:00
10:45 PM,57.2,51.8,82,30.04,-9999.0,South,2.3,-,N/A,,Clear,170,2012-10-06 20:45:00
11:45 PM,55.4,50.0,82,30.04,-9999.0,SSE,4.6,-,N/A,,Clear,160,2012-10-06 21:45:00